TimeAST,TemperatureF,Dew PointF,Humidity,Sea Level PressureIn,VisibilityMPH,Wind Direction,Wind SpeedMPH,Gust SpeedMPH,PrecipitationIn,Events,Conditions,WindDirDegrees,DateUTC
12:00 AM,39.2,26.6,61,29.74,7.0,West,32.2,40.3,N/A,,Overcast,270,2012-12-24 04:00:00
1:00 AM,39.2,26.6,61,29.76,7.0,West,27.6,35.7,N/A,,Mostly Cloudy,270,2012-12-24 05:00:00
2:00 AM,39,25,44,29.78,7,West,29.9,,,,Overcast,270,2012-12-24 06:00:00
2:00 AM,39.2,24.8,56,29.78,7.0,West,31.1,41.4,N/A,,Overcast,270,2012-12-24 06:00:00
3:00 AM,39.2,24.8,56,29.79,8.0,West,20.7,33.4,N/A,,Overcast,260,2012-12-24 07:00:00
4:00 AM,41.0,26.6,57,29.79,8.0,West,20.7,34.5,N/A,,Overcast,260,2012-12-24 08:00:00
5:00 AM,40,26,44,29.79,7,West,20.7,,,,Overcast,270,2012-12-24 09:00:00
5:00 AM,41.0,24.8,53,29.79,8.0,West,21.9,29.9,N/A,,Overcast,270,2012-12-24 09:00:00
6:00 AM,41.0,26.6,57,29.80,9.0,West,17.3,25.3,N/A,,Overcast,260,2012-12-24 10:00:00
7:00 AM,41.0,28.4,61,29.80,7.0,SW,18.4,-,N/A,,Overcast,230,2012-12-24 11:00:00
7:59 AM,39.2,30.2,70,29.82,6.0,WSW,18.4,24.2,N/A,,Overcast,250,2012-12-24 11:59:00
8:00 AM,40,30,56,29.83,6,WSW,17.3,,,,Unknown Precipitation,250,2012-12-24 12:00:00
8:00 AM,39.2,30.2,70,29.83,6.0,West,19.6,-,N/A,,Overcast,260,2012-12-24 12:00:00
8:17 AM,39.2,32.0,75,29.82,6.0,WSW,17.3,23.0,N/A,Rain,Light Rain,250,2012-12-24 12:17:00
8:18 AM,39.2,32.0,75,29.82,6.0,WSW,16.1,-,N/A,,Overcast,250,2012-12-24 12:18:00
8:39 AM,39.2,33.8,81,29.82,7.0,WSW,12.7,19.6,N/A,,Overcast,250,2012-12-24 12:39:00
9:00 AM,39.2,33.8,81,29.84,6.0,WSW,12.7,-,N/A,,Mostly Cloudy,250,2012-12-24 13:00:00
9:28 AM,41.0,33.8,76,29.83,6.0,WSW,13.8,-,N/A,,Overcast,250,2012-12-24 13:28:00
9:59 AM,41.0,33.8,76,29.83,6.0,WSW,17.3,-,N/A,,Mostly Cloudy,250,2012-12-24 13:59:00
10:00 AM,41.0,33.8,76,29.83,6.0,WSW,17.3,-,N/A,,Mostly Cloudy,240,2012-12-24 14:00:00
11:00 AM,42,34,64,29.82,7,WSW,17.3,,,,Overcast,240,2012-12-24 15:00:00
11:00 AM,42.8,33.8,70,29.82,7.0,WSW,19.6,-,N/A,,Overcast,240,2012-12-24 15:00:00
11:35 AM,42.8,33.8,70,29.81,7.0,SW,24.2,-,N/A,Rain,Light Rain,230,2012-12-24 15:35:00
11:36 AM,42.8,33.8,70,29.81,6.0,WSW,25.3,-,N/A,Rain,Light Rain,240,2012-12-24 15:36:00
11:53 AM,41.0,35.6,81,29.81,7.0,West,20.7,28.8,N/A,,Mostly Cloudy,270,2012-12-24 15:53:00
12:00 PM,41.0,33.8,76,29.81,8.0,West,19.6,28.8,N/A,,Mostly Cloudy,260,2012-12-24 16:00:00
12:33 PM,41.0,33.8,76,29.80,7.0,West,13.8,25.3,N/A,,Overcast,260,2012-12-24 16:33:00
12:58 PM,42.8,33.8,70,29.79,7.0,West,18.4,25.3,N/A,,Overcast,260,2012-12-24 16:58:00
1:00 PM,42.8,33.8,70,29.80,7.0,West,20.7,28.8,N/A,,Overcast,260,2012-12-24 17:00:00
1:04 PM,41.0,33.8,76,29.80,5.0,West,25.3,31.1,N/A,,Overcast,280,2012-12-24 17:04:00
1:05 PM,39.2,33.8,81,29.80,4.0,West,24.2,31.1,N/A,Rain,Light Rain,270,2012-12-24 17:05:00
1:23 PM,41.0,35.6,81,29.80,7.0,West,20.7,33.4,N/A,,Overcast,260,2012-12-24 17:23:00
1:40 PM,41.0,30.2,65,29.80,9.0,West,29.9,35.7,N/A,,Mostly Cloudy,270,2012-12-24 17:40:00
1:48 PM,41.0,30.2,65,29.80,9.0,West,21.9,35.7,N/A,,Mostly Cloudy,270,2012-12-24 17:48:00
2:00 PM,41,30,55,29.81,9,West,24.2,,,,,270,2012-12-24 18:00:00
2:00 PM,41.0,30.2,65,29.81,9.0,West,24.2,34.5,N/A,,Mostly Cloudy,270,2012-12-24 18:00:00
3:00 PM,41.0,26.6,57,29.83,9.0,West,29.9,36.8,N/A,,Overcast,270,2012-12-24 19:00:00
4:00 PM,39.2,24.8,56,29.85,9.0,West,29.9,38.0,N/A,,Mostly Cloudy,270,2012-12-24 20:00:00
5:00 PM,40,27,48,29.85,9,West,24.2,,,,,260,2012-12-24 21:00:00
5:00 PM,39.2,26.6,61,29.85,9.0,West,24.2,38.0,N/A,,Partly Cloudy,260,2012-12-24 21:00:00
6:00 PM,41.0,30.2,65,29.86,8.0,West,25.3,35.7,N/A,,Overcast,260,2012-12-24 22:00:00
7:00 PM,41.0,28.4,61,29.87,8.0,West,31.1,41.4,N/A,,Overcast,260,2012-12-24 23:00:00
8:00 PM,40,26,45,29.88,7,West,31.1,,,,,270,2012-12-25 00:00:00
8:00 PM,39.2,26.6,61,29.88,8.0,West,29.9,44.9,N/A,,Mostly Cloudy,270,2012-12-25 00:00:00
9:00 PM,37.4,21.2,52,29.91,9.0,West,32.2,38.0,N/A,,Mostly Cloudy,270,2012-12-25 01:00:00
10:00 PM,37.4,23.0,56,29.92,9.0,West,25.3,36.8,N/A,,Partly Cloudy,270,2012-12-25 02:00:00
11:00 PM,36,22,45,29.94,9,West,25.3,,,,,270,2012-12-25 03:00:00
11:00 PM,37.4,23.0,56,29.94,9.0,West,24.2,35.7,N/A,,Mostly Cloudy,270,2012-12-25 03:00:00